This demonstration page uses our WeatherBlox Daily Observations layout. Learn more.

Left ArrowRight Arrow

40.97296, -117.73568

Hourly Observations for August 11, 2022

Temp ( °F °C ) Dew Point ( °F °C ) Humidity (%) Winds ( mph kmh ) Pressure ( in mb ) Visibility ( mi km ) Precip ( " mm )
12:14 am 00:14 Cloudy 65 18.3 61 16.1 87 87 Calm 30.00 1016 10 16 0.01 0.13
1:56 am 01:56 Clear 64 17.8 61 16.1 90 90 Calm 30.04 1017 10 16 0.00 0.00
2:56 am 02:56 Clear 62 16.7 60 15.6 93 93 E 6 9 30.03 1017 10 16 0.00 0.00
3:56 am 03:56 Clear 61 16.1 58 14.4 90 90 E 6 9 30.01 1016 10 16 0.00 0.00
4:56 am 04:56 Clear 59 15 57 13.9 93 93 Calm 30.01 1016 10 16 0.00 0.00
5:56 am 05:56 Clear 59 15 57 13.9 93 93 Calm 30.02 1017 10 16 0.00 0.00
6:56 am 06:56 Sunny 64 17.8 57 13.9 78 78 Calm 30.03 1017 10 16 0.00 0.00
7:56 am 07:56 Sunny 68 20 57 13.9 68 68 ESE 5 7 30.03 1017 10 16 0.00 0.00
8:56 am 08:56 Sunny 74 23.3 57 13.9 56 56 Calm 30.04 1017 10 16 0.00 0.00
9:56 am 09:56 Sunny 78 25.6 59 15 52 52 NNE 7 11 30.04 1017 10 16 0.00 0.00
10:56 am 10:56 Sunny 82 27.8 56 13.3 41 41 Calm 30.02 1017 10 16 0.00 0.00
11:56 am 11:56 Sunny 86 30 56 13.3 36 36 VRB 6 9 30.01 1016 10 16 0.00 0.00
12:56 pm 12:56 Sunny 90 32.2 56 13.3 32 32 W 12 19 29.98 1015 10 16 0.00 0.00
1:56 pm 13:56 Sunny 91 32.8 55 12.8 30 30 WNW 9 15 29.97 1015 10 16 0.00 0.00
2:56 pm 14:56 Sunny 93 33.9 54 12.2 27 27 undefined N/A 29.95 1014 10 16 0.00 0.00
3:56 pm 15:56 Partly Cloudy 93 33.9 53 11.7 26 26 undefined N/A 29.93 1014 10 16 0.00 0.00
4:56 pm 16:56 Partly Cloudy 94 34.4 51 10.6 24 24 NW 6 9 29.91 1013 10 16 0.00 0.00
5:56 pm 17:56 Mostly Cloudy 94 34.4 49 9.4 22 22 W 15 24 29.89 1012 10 16 0.00 0.00
6:56 pm 18:56 Sunny 91 32.8 48 8.9 23 23 WSW 10 17 29.89 1012 10 16 0.00 0.00
7:56 pm 19:56 Clear 82 27.8 51 10.6 34 34 WSW 5 7 29.90 1013 10 16 0.00 0.00
8:56 pm 20:56 Clear 75 23.9 52 11.1 45 45 Calm 29.92 1013 10 16 0.00 0.00
9:56 pm 21:56 Clear 76 24.4 48 8.9 37 37 W 5 7 29.93 1014 10 16 0.00 0.00
10:56 pm 22:56 Clear 67 19.4 50 10 55 55 SW 7 11 29.93 1014 10 16 0.00 0.00
11:56 pm 23:56 Clear 68 20 49 9.4 50 50 WNW 5 7 29.94 1014 10 16 0.00 0.00

Powered by AerisWeather